HAIYANG-2A

Last updated on Sat Jul 05 2025 00:02:29 GMT+0000 (Coordinated Universal Time)

1 37781U 11043A 25185.61279047 .00000002 00000+0 45381-4 0 9998 2 37781 99.3323 189.0139 0001610 113.6892 246.4428 13.78819203698786
UTC large
Height (km)
Speed (km/s)
/
Latitude / Longitude
Inclination (degrees)
Orbital Period (minutes)
Azimuth
Elevation
Range (km)
Doppler Factor

Next 0 passes for location: London (51.5072 / 0.1276)

Sorry there are no passes over London.